www.pogodaiklimat.ru

Погода и климат >> Архив погоды >> Австралия >> Birdsville Airport


ПОГОДА в Birdsville Airport

  • Прогноз погоды в Birdsville Airport
  • Монитор погоды в Birdsville Airport
  • Климат города

АРХИВ ПОГОДЫ в Birdsville Airport

Время (UTC), дата Ветер
(напр.,м/с)
 
Видим.   Явления Облачность Т
(С)
Тd
(С)
f
(%)
Тe
(С)
Тes
(С)
Комфортность P
(гПа)
Po
(гПа)
Тmin
(С)
Tmax
(С)
R
(мм)
R24
(мм)
S
(см)
14 18.04 СВ 2 н/о н/о +29.0 +8.7 28 +29 +29 жарко 1016.4 1011.0 +37.0
15 18.04 СВ 4 н/о н/о +29.2 +9.9 30 +29 +29 жарко 1016.6 1011.2
17 18.04 Ю 7 н/о н/о +28.5 +12.0 36 +30 +30 жарко 1016.8 1011.4
18 18.04 ЮВ 7 н/о н/о +28.0 +11.5 36 +29 +29 жарко 1016.8 1011.4
20 18.04 ЮВ 5 н/о н/о +27.3 +11.3 37 +28 +28 жарко 1017.8 1012.3
21 18.04 ЮВ 4 н/о н/о +27.0 +11.1 37 +28 +28 жарко 1018.8 1013.3
23 18.04 СВ 5 н/о н/о +29.7 +9.3 28 +29 +29 жарко 1019.9 1014.4
00 19.04 СВ 6 н/о н/о +30.5 +9.4 27 +30 +30 жарко 1019.6 1014.1
02 19.04 С 6 н/о н/о +33.8 +9.8 23 +33 +33 жарко 1018.6 1013.1 +27.0
03 19.04 С 5 н/о н/о +34.4 +8.9 21 +33 +33 жарко 1017.4 1012.0
05 19.04 СВ 6 н/о н/о +35.1 +8.8 20 +34 +34 очень
жарко
1016.2 1010.8
06 19.04 СВ 5 н/о н/о +34.7 +9.2 21 +33 +33 жарко 1015.9 1010.5
08 19.04 В 4 н/о н/о +33.7 +10.3 24 +33 +33 жарко 1016.5 1011.1
09 19.04 В 3 н/о н/о +32.6 +10.0 25 +32 +32 жарко 1017.1 1011.7
11 19.04 В 3 н/о н/о +30.7 +9.0 26 +30 +30 жарко 1018.1 1012.6
12 19.04 В 3 н/о н/о +30.0 +9.5 28 +30 +30 жарко 1018.3 1012.8
14 19.04 В 5 н/о н/о +29.7 +9.3 28 +29 +29 жарко 1018.0 1012.5 +36.5
15 19.04 СВ 5 н/о н/о +28.9 +9.1 29 +29 +29 жарко 1017.6 1012.1
17 19.04 СВ 3 н/о н/о +25.7 +8.2 33 +26 +26 жарко 1017.3 1011.9
18 19.04 В 4 н/о н/о +26.5 +8.9 33 +27 +27 жарко 1017.3 1011.9
20 19.04 В 6 н/о н/о +26.9 +8.4 31 +27 +27 жарко 1018.3 1012.8
21 19.04 СВ 7 н/о н/о +26.2 +8.2 32 +26 +26 жарко 1019.0 1013.5
23 19.04 СВ 9 н/о н/о +27.9 +7.7 28 +27 +27 жарко 1020.2 1014.7
00 20.04 СВ 11 н/о н/о +29.3 +8.9 28 +29 +29 жарко 1020.1 1014.6
02 20.04 С 9 н/о н/о +32.6 +8.8 23 +31 +31 жарко 1019.3 1013.8 +25.2
03 20.04 СВ 8 н/о н/о +33.6 +8.3 21 +32 +32 жарко 1018.2 1012.7
05 20.04 СВ 5 н/о н/о +33.3 +8.0 21 +32 +32 жарко 1016.8 1011.4
06 20.04 С 4 н/о н/о +33.1 +7.9 21 +32 +32 жарко 1016.4 1011.0
08 20.04 СВ 3 н/о н/о +32.4 +8.0 22 +31 +31 жарко 1016.9 1011.5
09 20.04 В 2 н/о н/о +31.3 +9.5 26 +31 +31 жарко 1017.4 1012.0
11 20.04 В 3 н/о н/о +30.5 +8.8 26 +30 +30 жарко 1018.1 1012.6
12 20.04 СВ 2 н/о н/о +29.4 +8.5 27 +29 +29 жарко 1018.2 1012.7
14 20.04 В 3 н/о н/о +28.9 +9.1 29 +29 +29 жарко 1017.3 1011.9 +34.3
15 20.04 В 3 н/о н/о +28.1 +8.9 30 +28 +28 жарко 1017.0 1011.6
17 20.04 В 3 н/о н/о +26.6 +8.6 32 +27 +27 жарко 1016.3 1010.9
18 20.04 В 2 н/о н/о +25.7 +8.7 34 +26 +26 жарко 1016.0 1010.6
20 20.04 СВ 2 н/о н/о +24.2 +6.9 33 +24 +24 комфорт 1016.9 1011.5
21 20.04 В 3 н/о н/о +24.2 +7.8 35 +25 +25 комфорт 1017.6 1012.1
23 20.04 СВ 6 н/о н/о +27.2 +7.1 28 +27 +27 жарко 1018.8 1013.3
00 21.04 СВ 7 н/о н/о +28.7 +7.3 26 +28 +28 жарко 1018.8 1013.3
02 21.04 С 5 н/о н/о +32.6 +8.1 22 +31 +31 жарко 1017.4 1012.0 +24.0
03 21.04 СВ 4 н/о н/о +33.6 +8.3 21 +32 +32 жарко 1016.3 1010.9
05 21.04 В 3 н/о н/о +33.5 +8.9 22 +32 +32 жарко 1014.7 1009.3
06 21.04 В 4 н/о н/о +33.7 +8.3 21 +32 +32 жарко 1014.4 1009.0
08 21.04 ЮВ 7 н/о н/о +32.0 +8.3 23 +31 +31 жарко 1015.4 1010.0
09 21.04 Ю 9 н/о н/о +28.9 +8.0 27 +28 +28 жарко 1015.9 1010.5
11 21.04 ЮВ 7 н/о н/о +26.1 +11.1 39 +27 +27 жарко 1017.8 1012.3
12 21.04 ЮВ 7 н/о н/о +25.8 +10.8 39 +27 +27 жарко 1018.3 1012.8
14 21.04 ЮВ 5 н/о н/о +24.7 +10.9 42 +26 +26 жарко 1017.7 1012.2 +34.4
15 21.04 ЮВ 5 н/о н/о +24.7 +10.6 41 +26 +26 жарко 1017.3 1011.9
17 21.04 ЮВ 6 н/о н/о +24.7 +10.9 42 +26 +26 жарко 1016.5 1011.1
18 21.04 ЮВ 5 н/о н/о +24.4 +11.4 44 +26 +26 жарко 1016.5 1011.1
20 21.04 Ю 5 н/о н/о +23.1 +10.9 46 +25 +25 комфорт 1017.1 1011.7
21 21.04 ЮВ 6 н/о н/о +23.4 +11.5 47 +26 +26 жарко 1017.2 1011.8
23 21.04 В 5 н/о н/о +24.6 +11.5 44 +26 +26 жарко 1018.4 1012.9
00 22.04 В 6 н/о н/о +27.0 +11.1 37 +28 +28 жарко 1018.3 1012.8
02 22.04 СВ 4 н/о н/о +30.1 +11.6 32 +31 +31 жарко 1017.4 1012.0 +23.1
03 22.04 СВ 4 н/о н/о +31.8 +12.1 30 +32 +32 жарко 1016.3 1010.9
05 22.04 В 5 н/о н/о +32.3 +10.4 26 +32 +32 жарко 1015.1 1009.7
06 22.04 ЮВ 5 н/о н/о +32.3 +10.4 26 +32 +32 жарко 1015.0 1009.6
08 22.04 ЮВ 4 н/о н/о +31.1 +9.9 27 +31 +31 жарко 1015.7 1010.3
09 22.04 ЮВ 4 н/о н/о +30.1 +10.1 29 +30 +30 жарко 1016.1 1010.7
11 22.04 В 4 н/о н/о +28.2 +9.9 32 +28 +28 жарко 1017.3 1011.9
12 22.04 В 4 н/о н/о +27.5 +11.5 37 +28 +28 жарко 1017.6 1012.1
14 22.04 В 4 н/о н/о +25.7 +11.8 42 +27 +27 жарко 1016.9 1011.5 +33.5
15 22.04 В 3 н/о н/о +24.9 +12.5 46 +27 +27 жарко 1016.7 1011.3
17 22.04 В 2 н/о н/о +23.6 +13.2 52 +26 +26 жарко 1016.3 1010.9
18 22.04 В 3 н/о н/о +23.3 +14.6 58 +27 +27 душно 1016.2 1010.8
20 22.04 В 3 н/о н/о +22.1 +14.7 63 +25 +25 комфорт 1016.8 1011.4
21 22.04 В 3 н/о н/о +21.3 +14.2 64 +24 +24 комфорт 1017.3 1011.9
23 22.04 В 3 н/о н/о +24.3 +15.0 56 +27 +27 жарко 1019.1 1013.6
00 23.04 ЮВ 5 н/о н/о +26.1 +15.2 51 +29 +29 жарко 1019.1 1013.6
02 23.04 СВ 6 н/о н/о +30.7 +14.3 37 +33 +33 душно 1017.7 1012.2 +21.2
03 23.04 СВ 5 н/о н/о +31.8 +13.5 33 +33 +33 жарко 1016.4 1011.0
05 23.04 ЮВ 4 н/о н/о +32.8 +12.4 29 +33 +33 жарко 1014.8 1009.4
06 23.04 В 2 н/о н/о +33.0 +11.5 27 +33 +33 жарко 1014.7 1009.3
08 23.04 Ю 4 н/о н/о +32.3 +12.0 29 +33 +33 жарко 1015.1 1009.7
09 23.04 Ю 3 н/о н/о +30.5 +11.0 30 +31 +31 жарко 1015.6 1010.2
11 23.04 Ю 3 н/о н/о +28.0 +11.1 35 +29 +29 жарко 1016.7 1011.3
12 23.04 ЮВ 3 н/о н/о +26.1 +10.3 37 +27 +27 жарко 1017.0 1011.6
14 23.04 ЮВ 3 н/о н/о +24.7 +10.6 41 +26 +26 жарко 1016.7 1011.3 +34.1
15 23.04 ЮВ 3 н/о н/о +24.3 +10.9 43 +26 +26 жарко 1016.3 1010.9
17 23.04 ЮВ 3 н/о н/о +23.5 +11.9 48 +25 +25 комфорт 1015.4 1010.0
18 23.04 ЮВ 4 н/о н/о +22.0 +10.8 49 +24 +24 комфорт 1014.8 1009.4
20 23.04 СВ 4 н/о н/о +23.0 +12.6 52 +26 +26 жарко 1014.7 1009.3
21 23.04 В 3 н/о н/о +22.3 +12.8 55 +25 +25 комфорт 1015.3 1009.9
23 23.04 СВ 5 н/о н/о +26.9 +12.9 42 +29 +29 жарко 1016.2 1010.8
00 24.04 СВ 6 н/о н/о +29.8 +12.7 35 +31 +31 жарко 1016.3 1010.9
02 24.04 С 6 н/о н/о +33.4 +11.9 27 +33 +33 жарко 1014.9 1009.5 +22.0
03 24.04 СВ 5 н/о н/о +33.1 +11.0 26 +33 +33 жарко 1013.9 1008.5
05 24.04 С 4 н/о н/о +35.1 +10.2 22 +34 +34 очень
жарко
1012.1 1006.7
06 24.04 С 4 н/о н/о +34.5 +9.7 22 +33 +33 жарко 1011.9 1006.5
08 24.04 СВ 3 н/о н/о +33.5 +9.5 23 +33 +33 жарко 1012.1 1006.7
09 24.04 штиль 0 н/о н/о +33.0 +9.7 24 +32 +32 жарко 1012.6 1007.2
11 24.04 СВ 3 н/о н/о +29.9 +9.4 28 +30 +30 жарко 1012.7 1007.3
12 24.04 СВ 3 н/о н/о +28.7 +8.4 28 +28 +28 жарко 1012.7 1007.3
14 24.04 СВ 4 н/о н/о +26.4 +7.9 31 +26 +26 жарко 1012.0 1006.6 +35.7
15 24.04 СВ 4 н/о н/о +27.1 +8.5 31 +27 +27 жарко 1011.5 1006.1
17 24.04 В 2 н/о н/о +26.5 +10.2 36 +27 +27 жарко 1011.3 1005.9
18 24.04 В 4 н/о н/о +26.5 +8.9 33 +27 +27 жарко 1011.8 1006.4
20 24.04 В 2 н/о н/о +25.7 +9.9 37 +26 +26 жарко 1012.0 1006.6
21 24.04 В 2 н/о н/о +24.4 +10.3 41 +25 +25 комфорт 1012.1 1006.7
23 24.04 Ю 5 н/о н/о +27.1 +13.8 44 +29 +29 жарко 1013.3 1007.9
00 25.04 Ю 6 н/о н/о +26.1 +16.4 55 +30 +30 душно 1013.9 1008.5
02 25.04 Ю 8 н/о н/о +28.2 +16.8 50 +32 +32 душно 1013.4 1008.0 +23.7
03 25.04 Ю 7 н/о н/о +29.7 +15.8 43 +33 +33 душно 1012.6 1007.2
05 25.04 Ю 8 н/о н/о +31.0 +13.7 35 +32 +32 жарко 1011.1 1005.7
06 25.04 Ю 8 н/о н/о +31.3 +14.9 37 +33 +33 жарко 1011.1 1005.7
08 25.04 Ю 9 н/о н/о +27.4 +16.1 50 +31 +31 душно 1012.7 1007.3
09 25.04 Ю 9 н/о н/о +26.2 +15.9 53 +29 +29 жарко 1013.5 1008.1
11 25.04 ЮЗ 9 н/о н/о +24.9 +13.5 49 +27 +27 жарко 1015.6 1010.2

 

Местоположение метеостанции Birdsville Airport (Квинсленд, Австралия): широта -25.90 долгота 139.35 высота над уровнем моря 47 м.

В архиве по умолчанию представлена погода в Birdsville Airport за последнюю неделю. Архивные данные за месяц целиком и за предыдущие месяцы, начиная с января 2011 года, Вы можете получить, выбрав интересующий диапазон дат из раскрывающегося списка и нажав кнопку "Ввод!".

Внимание! Время в таблицах - всемирное. Для получения местного времени необходимо прибавить поправку, которая в Birdsville Airport равна 10 ч.

Смотрите также архив погоды в соседних городах и на ближайших метеорологических станциях:

Погода в Moomba Airport (Южная Австралия, Австралия) (259 км)
Погода в Ballera Gas Field (Квинсленд, Австралия) (298 км)
Погода в Oodnadatta Airport (Южная Австралия, Австралия) (429 км)
Погода в Marree Aero (Южная Австралия, Австралия) (437 км)
Погода в Phosphate Hill Airport (Квинсленд, Австралия) (460 км)
Погода в Jervois (Северная территория, Австралия) (461 км)
Погода в Tibooburra Airport (Новый Южный Уэльс, Австралия) (476 км)
Погода в Trepell Airport (Квинсленд, Австралия) (479 км)
Погода в Thargomindah Airport (Квинсленд, Австралия) (499 км)
Погода в Leigh Creek Airport (Южная Австралия, Австралия) (531 км)

Пояснения к столбцам:

Ветер - указаны скорость ветра в м/с - средняя за 10 мин, порывы в срок и между сроками (в фигурных скобках) и направление, откуда дует ветер: С - северный, СВ - северо-восточный, В - восточный, ЮВ - юго-восточный, Ю - южный, ЮЗ - юго-западный, З - западный, СЗ - северо-западный.
Видимость - горизонтальная дальность видимости в метрах или километрах. При видимости от 1 до 10 км при отсутствии осадков обычно наблюдается дымка, при ухудшении видимости до 1 км и менее - туман. В сухую погоду видимость может ухудшаться дымом, пылью или мглою.
Явления - указаны атмосферные явления, наблюдавшиеся в срок или в последний час перед сроком; фигурными скобками обозначены явления, наблюдавшиеся между сроками (за 1-3 часа до срока); квадратными скобками обозначены град или гололедные отложения с указанием их диаметра в мм.
Облачность - указаны через наклонную черту общая и нижняя облачность в баллах и высота нижней границы облаков в метрах; квадратными скобками обозначены формы облаков: Ci - перистые, Cs - перисто-слоистые, Cc - перисто-кучевые, Ac - высококучевые, As - высокослоистые, Sc - слоисто-кучевые, Ns - слоисто-дождевые, Cu - кучевые, Cb - кучево-дождевые. Подробнее классификацию облаков см. в Атласе облаков (PDF).
T - Температура воздуха - температура, измеренная на высоте 2 м над землей.
Td - Температура точки росы - температура, при понижении до которой содержащийся в воздухе водяной пар достигнет насыщения.
f - Относительная влажность воздуха - влажноcть воздуха, измеренная на высоте 2 м над землей.
Te - Эффективная температура - температура, которую ощущает одетый по сезону человек в тени. Характеристика душности погоды. При расчете учитывается влияние влажности воздуха и скорости ветра на теплоощущения человека.
Tes - Эффективная температура на солнце - температура, которую ощущает человек, с поправкой на солнечный нагрев. Характеристика знойности погоды. Зависит от высоты солнца над горизонтом, облачности и скорости ветра. Ночью, в пасмурную погоду, а также при ветре 12 м/с и более поправка равна нулю.
P - Атмосферное давление - приведенное к уровню моря атмосферное давление.
Po - Атмосферное давление - измеренное на уровне метеостанции атмосферное давление.
Tmin - Минимальная температура - минимум температуры воздуха на высоте 2 м над землей.
Tmax - Максимальная температура - максимум температуры воздуха на высоте 2 м над землей.
R - Количество осадков - Количество выпавших осадков за период времени, мм. При наведении курсора мыши на число - период времени, за который выпало указанное количество осадков.
R24 - Количество осадков - Количество выпавших осадков за 24 часа, мм.
S - Снежный покров - Высота снежного покрова, см. При наведении курсора мыши на число - состояние снежного покрова и степень покрытия местности в баллах.